Regional Weather Roundup
Issued by NWS Upton, NY

Current Version | Previous Version | Text Only | Print | Product List | Glossary On
Versions: 1 2 3 4 5 6 7 8 9 10 11 12 13 14 15 16 17 18 19 20 21 22 23 24 25 26 27 28 29 30 31 32 33 34 35 36 37 38 39 40 41 42 43 44 45 46 47 48 49 50
000 ASUS41 KOKX 011205 RWROKX REGIONAL WEATHER ROUNDUP NATIONAL WEATHER SERVICE NEW YORK NY 800 AM EDT WED OCT 01 2014 NOTE: "FAIR" INDICATES FEW OR NO CLOUDS BELOW 12,000 FEET WITH NO SIGNIFICANT WEATHER AND/OR OBSTRUCTIONS TO VISIBILITY. NYZ071-072-176-178-NJZ106-104-011300- NEW YORK CITY METRO AREA CITY SKY/WX TMP DP RH WIND PRES REMARKS CENTRAL PARK CLOUDY 62 57 83 NE7 30.05R HAZE LAGUARDIA APRT LGT RAIN 61 58 90 N10 30.02R KENNEDY INTL CLOUDY 62 58 86 N12 30.02R NEWARK/LIBERTY LGT RAIN 62 57 83 N10 30.02R BRNX BOT. GARD NOT AVBL TETERBORO CLOUDY 63 56 78 VRB7 30.01R $$ NYZ177-179-078>081-011300- LONG ISLAND NEW YORK CITY SKY/WX TMP DP RH WIND PRES REMARKS FARMINGDALE CLOUDY 61 59 93 NE7 30.01R FOG ISLIP CLOUDY 60 58 92 N8 29.99R SHIRLEY CLOUDY 60 58 92 N5 30.01R WESTHAMPTON CLOUDY 60 58 92 N8 30.01S MONTAUK POINT N/A 61 58 90 N10 30.02R $$ NYZ052-065-067-011300- HUDSON VALLEY CITY SKY/WX TMP DP RH WIND PRES REMARKS WHITE PLAINS LGT RAIN 59 56 89 N5 30.02R FOG NEWBURGH CLOUDY 59 57 94 E6 30.06R MONTGOMERY CLOUDY 59 56 89 CALM 30.05R POUGHKEEPSIE CLOUDY 59 56 89 N3 30.04R FOG ALBANY CLOUDY 61 57 87 CALM 30.07R $$ NJZ001-105-106-008-010-013-015-019>022-104-011300- NEW JERSEY CITY SKY/WX TMP DP RH WIND PRES REMARKS NEWARK/LIBERTY LGT RAIN 62 57 83 N10 30.02R TETERBORO CLOUDY 63 56 78 VRB7 30.01R CALDWELL CLOUDY 59 54 83 NE5 30.04R MORRISTOWN CLOUDY 61 57 88 CALM 30.03R SOMERVILLE PTSUNNY 60 56 86 CALM 30.01R LINDEN CLOUDY 66 59 77 NE8 30.03S SUSSEX CLOUDY 61 55 81 NE5 30.04R ANDOVER N/A 58 56 93 NE3 30.04R TRENTON PTSUNNY 60 56 86 NE5 30.01R MILLVILLE CLOUDY 63 59 87 NE7 30.00R ATLANTIC CITY CLOUDY 62 61 96 NE8 29.99R WRIGHTSTOWN CLOUDY 61 61 99 NE6 29.99R TOMS RIVER CLOUDY 61 59 94 N3 30.01R BELMAR CLOUDY 61 55 82 N6 30.01R $$ PAZ047>061-062-071-011300- EASTERN PENNSYLVANIA CITY SKY/WX TMP DP RH WIND PRES REMARKS PHILADELPHIA CLOUDY 64 58 80 NE6 30.01R ALLENTOWN PTSUNNY 60 56 86 E7 30.03R SCRANTON MOSUNNY 60 55 83 NE7 30.03R $$ CTZ002-004>006-009-010-012-RIZ004-006-007-MAZ004-011-015-011300- SOUTHERN NEW ENGLAND IN CT CITY SKY/WX TMP DP RH WIND PRES REMARKS BRADLEY INTL LGT RAIN 59 56 89 N7 30.04R FOG HARTFORD HVY RAIN 58 56 93 N10 30.04R FOG DANBURY LGT RAIN 58 56 93 NE5 30.05R WTRBRY/OXFORD LGT RAIN 57 52 82 NE7 30.05R FOG BRIDGEPORT CLOUDY 60 58 92 N10 30.02R MERIDEN LGT RAIN 59 56 89 N6 30.04R NEW HAVEN LGT RAIN 61 57 87 N10 30.02R CHESTER HVY RAIN 57 55 94 N8 30.03S GROTON CLOUDY 57 56 96 N8 30.01R WILLIMANTIC LGT RAIN 58 55 90 N5 30.04R IN RI CITY SKY/WX TMP DP RH WIND PRES REMARKS PROVIDENCE CLOUDY 58 56 93 N9G20 30.03R BLOCK ISLAND CLOUDY 61 55 82 NE13G18 30.00S WESTERLY CLOUDY 58 57 97 N7 30.02R IN MA CITY SKY/WX TMP DP RH WIND PRES REMARKS BOSTON CLOUDY 57 56 96 N16 30.05R FOG WORCESTER LGT RAIN 54 53 97 N12 30.05R WESTFIELD LGT RAIN 58 56 93 N8 30.05R FOG PROVINCETOWN CLOUDY 61 57 88 NE14 30.02R NANTUCKET CLOUDY 63 61 93 NE15 29.96S $$ ANZ330-335-338-340-345-350-353-355-011300- COASTAL MARINE OBSERVATIONS STATION/POSITION TIME SKY/WX TEMP WIND PRES VSBY WAVE AIR SEA DIR/SP/G HT/PER (UTC) (F) (DEG/KT/KT) (MB) (MI) (FT/S) NY HARB ENTRANCE NOT AVBL 4S FIRE IS 1200 68 N/A 3/ 5 20S FIRE ISLAND 1200 63 67 50/ 16/ 17 1015.2 4/ 6 23SW MTP 1200 N/A 4/ 6 HUDSON CANYON 1200 65 70 30/ 19/ 21 1013.4 EXECUTION ROCKS 1200 62 68 30/ 14/ 17 N/A WESTERN LI SOUND 1200 61 40/ 14/ 17 N/A 1/ 4 CENTRAL LI SOUND 1100 60 68 30/ 16/ 19 N/A 2/ 3 EASTERN LI SOUND 1100 60 67 20/ 10/ 14 N/A ROBBINS REEF 1200 63 40/ 12/ 14 1015.1 $$ >>>>>>>>>>>>>>>>>>>>>>>>>>>> KEY <<<<<<<<<<<<<<<<<<<<<<<<<<< > < > SKY/WX - SKY CONDITION/PRESENT WEATHER < > TMP - TEMPERATURE IN FAHRENHEIT < > DP - DEWPOINT IN FAHRENHEIT < > RH - RELATIVE HUMIDITY IN PERCENT < > WIND - DIRECTION AND SPEED IN MPH < > PRES - MEAN SEA LEVEL PRESSURE IN INCHES OF HG < > WCI - WIND CHILL INDEX < > VSB - VISIBILITY IN MILES < > HX - HEAT INDEX < > TC - TEMPERATURE IN CELSIUS < > VRB - VARIABLE WIND DIRECTION < > < >>>>>>>>>>>>>>>>>>>>>>>>>>>> KEY <<<<<<<<<<<<<<<<<<<<<<<<<<<

USA.gov is the U.S. government's official web portal to all federal, state and local government web resources and services.